Flag Weather past 2 weeks in Emsdetten, North Rhine-Westphalia, Germany

Now
41 °F

Clear.


Feels Like: 36 °F
Forecast: 37 / 45 °F
Wind: 8 mph from East

Location: Muenster / Osnabrueck

Current Time: Nov 26, 2014 at 5:45:01 PM

Latest Report: Nov 26, 2014 at 5:20 PM


Visibility: 10 mi

Pressure: 29.95 "Hg

Humidity: 76%

Dew point: 34 °F

Location of EmsdettenLocation

Historic Weather in Emsdetten — Graph

°F

Emsdetten temperature yesterday

Maximum temperature yesterday: 46 °F (at 1:20 PM)
Minimum temperature yesterday: 30 °F (at 7:20 AM)
Average temperature yesterday: 38 °F

Past Weeks' High & Low Weather Summary

 TemperatureHumidityPressure
High57 °F (Nov 12, 1:20 PM)100% (Nov 12, 7:20 AM)30.36 "Hg (Nov 12, 7:20 AM)
Low30 °F (Nov 25, 7:20 AM)71% (Nov 21, 12:50 PM)29.47 "Hg (Nov 16, 12:50 PM)
Average46 °F90%29.95 "Hg
* Reported Nov 11 4:20 PM — Nov 26 4:50 PM, Emsdetten, Weather by CustomWeather, © 2014

Note: Actual official high and low records may vary slightly from our data, if they occured in-between our weather recording intervals... More about our weather records

Advertising

Emsdetten weather history for previous 24 hours

 ConditionsComfort  
Time TempWeatherWind HumidityBarometerVisibility
4:50 PM
Nov 26
43 °FClear.9 mph71%29.98 "Hg10 mi
4:20 PM43 °FSunny.7 mph71%29.98 "Hg10 mi
3:50 PM43 °FSunny.9 mph71%29.98 "Hg10 mi
3:20 PM43 °FSunny.9 mph71%29.98 "Hg10 mi
2:50 PM43 °FSunny.8 mph71%29.98 "Hg10 mi
2:20 PM43 °FSunny.8 mph71%29.98 "Hg10 mi
1:50 PM43 °FSunny.9 mph71%30.01 "Hg10 mi
1:20 PM43 °FSunny.9 mph76%30.01 "Hg10 mi
12:50 PM43 °FSunny.9 mph71%30.04 "Hg10 mi
12:20 PM43 °FSunny.10 mph71%30.04 "Hg10 mi
11:50 AM43 °FSunny.13 mph76%30.04 "Hg10 mi
11:20 AM41 °FSunny.10 mph76%30.07 "Hg10 mi
10:20 AM41 °FSunny.13 mph76%30.07 "Hg10 mi
9:50 AM39 °FClear.12 mph81%30.07 "Hg6 mi
9:20 AM39 °FClear.10 mph81%30.07 "Hg6 mi
8:50 AM37 °FClear.8 mph93%30.07 "Hg6 mi
8:20 AM37 °FClear.7 mph93%30.07 "Hg6 mi
7:50 AM37 °FClear.9 mph93%30.09 "Hg10 mi
7:20 AM37 °FPassing clouds.10 mph93%30.09 "HgN/A
6:50 AM39 °FPassing clouds.10 mph87%30.09 "HgN/A
6:20 AM39 °FPassing clouds.9 mph87%30.09 "HgN/A
5:50 AM39 °FPassing clouds.8 mph87%30.09 "HgN/A
5:20 AM39 °FPassing clouds.8 mph87%30.09 "HgN/A
4:20 AM39 °FPassing clouds.9 mph87%30.12 "HgN/A
3:50 AM39 °FPassing clouds.10 mph87%30.12 "HgN/A
3:20 AM39 °FPassing clouds.10 mph87%30.12 "HgN/A
2:50 AM39 °FPassing clouds.8 mph87%30.15 "HgN/A
2:20 AM39 °FPassing clouds.9 mph87%30.15 "HgN/A
1:50 AM39 °FPassing clouds.12 mph93%30.15 "HgN/A
1:20 AM39 °FPassing clouds.10 mph93%30.15 "HgN/A
12:50 AM39 °FPassing clouds.12 mph93%30.18 "HgN/A
12:20 AM41 °FClear.13 mph87%30.18 "Hg10 mi
11:50 PM
Nov 25
41 °FClear.10 mph87%30.18 "Hg10 mi
11:20 PM41 °FClear.9 mph93%30.18 "Hg10 mi
10:50 PM41 °FClear.8 mph87%30.21 "Hg10 mi
10:20 PM39 °FClear.6 mph100%30.21 "Hg10 mi
9:50 PM39 °FClear.7 mph93%30.21 "Hg10 mi
9:20 PM39 °FClear.7 mph93%30.21 "Hg10 mi
8:50 PM41 °FClear.7 mph93%30.21 "Hg10 mi
8:20 PM41 °FClear.7 mph93%30.21 "Hg10 mi
7:50 PM39 °FClear.7 mph100%30.24 "Hg6 mi
7:20 PM41 °FClear.6 mph100%30.24 "Hg6 mi
6:50 PM41 °FClear.6 mph93%30.24 "Hg6 mi
6:20 PM41 °FClear.6 mph93%30.24 "Hg6 mi
5:50 PM43 °FClear.7 mph87%30.24 "Hg10 mi
5:20 PM43 °FClear.7 mph93%30.24 "Hg10 mi
Weather by CustomWeather, © 2014

See weather overviewHow to use our weather pages